Location: Zagreb
(45.8000°N, 16.0000°E)
Time: 03:33:40
(UTC+01:00)

A-11 Canister half - All Passes

Search period start: 25 January 2020 00:00
Search period end: 04 February 2020 00:00
Orbit: 1525 x 1684 km, 47.3° (Epoch: 24 January)

Date Brightness Start Highest point End Pass type
(mag) Time Alt. Az. Time Alt. Az. Time Alt. Az.
25 Jan - 02:01:13 10° W 02:06:22 16° SW 02:11:36 10° SSW night (unlit)
25 Jan - 15:17:15 10° SSE 15:23:10 19° SE 15:29:07 10° E daylight
25 Jan - 17:17:31 10° SW 17:26:31 57° SE 17:35:46 10° ENE visible
25 Jan - 19:21:51 10° W 19:31:18 86° N 19:41:06 10° E visible
25 Jan - 21:27:07 10° WNW 21:36:43 89° NNE 21:46:39 10° ESE visible
25 Jan - 23:32:12 10° WNW 23:41:27 52° SW 23:50:57 10° SE visible
26 Jan - 01:39:17 10° W 01:44:49 17° SW 01:50:27 10° SSW night (unlit)
26 Jan - 14:56:04 10° SSE 15:01:38 18° SE 15:07:15 10° E daylight
26 Jan - 16:55:59 10° SW 17:04:56 55° SE 17:14:06 10° ENE daylight
26 Jan - 19:00:13 10° WSW 19:09:39 87° N 19:19:24 10° E visible
26 Jan - 21:05:29 10° WNW 21:15:03 88° NNE 21:24:57 10° ESE visible
26 Jan - 23:10:34 10° WNW 23:19:50 54° SW 23:29:22 10° SE visible
27 Jan - 01:17:23 10° W 01:23:16 18° SW 01:29:15 10° SSW night (unlit)
27 Jan - 14:34:55 10° SSE 14:40:06 16° SE 14:45:20 10° E daylight
27 Jan - 16:34:27 10° SW 16:43:20 52° SE 16:52:26 10° ENE daylight
27 Jan - 18:38:35 10° WSW 18:48:00 88° NNW 18:57:43 10° ENE visible
27 Jan - 20:43:51 10° W 20:53:23 87° NNE 21:03:17 10° ESE visible
27 Jan - 22:48:55 10° WNW 22:58:13 55° SW 23:07:48 10° SE visible
28 Jan - 00:55:32 10° W 01:01:43 19° SW 01:08:01 10° SSW night (unlit)
28 Jan - 14:13:48 10° SSE 14:18:35 15° SE 14:23:22 10° E daylight
28 Jan - 16:12:56 10° SW 16:21:45 50° SE 16:30:45 10° ENE daylight
28 Jan - 18:16:57 10° WSW 18:26:21 89° NNW 18:36:03 10° ENE visible
28 Jan - 20:22:12 10° W 20:31:44 86° N 20:41:35 10° E visible
28 Jan - 22:27:17 10° WNW 22:36:36 57° SSW 22:46:12 10° SE visible
29 Jan - 00:33:42 10° W 00:40:10 20° SW 00:46:45 10° S night (unlit)
29 Jan - 13:52:46 10° SSE 13:57:03 14° ESE 14:01:22 10° E daylight
29 Jan - 15:51:25 10° SSW 16:00:10 48° SE 16:09:05 10° ENE daylight
29 Jan - 17:55:20 10° WSW 18:04:42 90° S 18:14:22 10° ENE visible
29 Jan - 20:00:34 10° W 20:10:04 85° N 20:19:54 10° E visible
29 Jan - 22:05:39 10° WNW 22:14:58 59° SSW 22:24:36 10° SE visible
30 Jan - 00:11:53 10° W 00:18:36 21° SW 00:25:27 10° S night (unlit)
30 Jan - 13:31:49 10° SSE 13:35:32 13° ESE 13:39:16 10° E daylight
30 Jan - 15:29:55 10° SSW 15:38:35 46° SE 15:47:24 10° ENE daylight
30 Jan - 17:33:42 10° WSW 17:43:04 89° SSE 17:52:42 10° ENE visible
30 Jan - 19:38:56 10° W 19:48:25 85° N 19:58:13 10° E visible
30 Jan - 21:44:01 10° WNW 21:53:21 61° SSW 22:03:00 10° SE visible
30 Jan - 23:50:06 10° W 23:57:02 23° SW 00:04:07 10° S visible
31 Jan - 13:11:00 10° SE 13:14:01 12° ESE 13:17:02 10° ESE daylight
31 Jan - 15:08:25 10° SSW 15:17:00 45° SE 15:25:43 10° ENE daylight
31 Jan - 17:12:05 10° WSW 17:21:26 87° SSE 17:31:02 10° ENE visible
31 Jan - 19:17:18 10° W 19:26:45 84° N 19:36:31 10° E visible
31 Jan - 21:22:23 10° WNW 21:31:44 63° SSW 21:41:23 10° SE visible
31 Jan - 23:28:20 10° W 23:35:28 24° SW 23:42:46 10° S visible
01 Feb - 12:50:29 10° SE 12:52:30 11° ESE 12:54:32 10° ESE daylight
01 Feb - 14:46:55 10° SSW 14:55:26 43° SE 15:04:03 10° ENE daylight
01 Feb - 16:50:27 10° WSW 16:59:47 86° SSE 17:09:21 10° ENE daylight
01 Feb - 18:55:40 10° W 19:05:06 83° N 19:14:50 10° E visible
01 Feb - 21:00:45 10° WNW 21:10:07 65° SSW 21:19:46 10° SE visible
01 Feb - 23:06:36 10° W 23:13:54 25° SW 23:21:24 10° S visible
02 Feb - 14:25:26 10° SSW 14:33:52 41° SE 14:42:22 10° ENE daylight
02 Feb - 16:28:51 10° WSW 16:38:09 84° SSE 16:47:41 10° ENE daylight
02 Feb - 18:34:01 10° W 18:43:26 83° N 18:53:09 10° E visible
02 Feb - 20:39:07 10° WNW 20:48:29 67° SSW 20:58:09 10° SE visible
02 Feb - 22:44:51 10° W 22:52:20 27° SW 23:00:00 10° S visible
03 Feb - 14:03:57 10° SSW 14:12:18 39° SE 14:20:42 10° ENE daylight
03 Feb - 16:07:13 10° WSW 16:16:32 83° SSE 16:26:02 10° ENE daylight
03 Feb - 18:12:23 10° W 18:21:47 82° N 18:31:27 10° E visible
03 Feb - 20:17:30 10° WNW 20:26:52 69° SSW 20:36:31 10° SE visible
03 Feb - 22:23:08 10° W 22:30:46 28° SW 22:38:36 10° S visible
